Wise, VA

11:31 PM EDT on September 22, 2017 (GMT -0400)
Lonesome Pine

Weather History for KLNP - February, 2014

Change the Weather History Date:

Thursday, February 13, 2014

  Actual Average Record
Temperature  
Mean Temperature 28 °F -  
Max Temperature 32 °F 43 °F 93 °F (1997)
Min Temperature 23 °F 27 °F 10 °F (2015)
Degree Days  
Heating Degree Days 38    
Moisture  
Dew Point 27 °F    
Average Humidity 95    
Maximum Humidity 100    
Minimum Humidity 69    
Precipitation  
Precipitation 0.32 in - - ()
Sea Level Pressure  
Sea Level Pressure 29.69 in    
Wind  
Wind Speed 7 mph (NW)    
Max Wind Speed 13 mph    
Max Gust Speed 17 mph    
Visibility 5 miles    
Events Snow    
Averages and records for this station are not official NWS values.
T = Trace of Precipitation, MM = Missing Value Source: NWS Daily Summary

Daily Weather History Graph

Daily Weather History Graph

Search for Another Location

Airport or City:

Trip Planner

Search our weather history database for the weather conditions in past years. The results will help you decide how hot, cold, wet, or windy it might be!

Date:

Astronomy

Feb. 13, 2014 Rise Set
Actual Time 7:20 AM EST 6:08 PM EST
Civil Twilight 6:54 AM EST 6:34 PM EST
Nautical Twilight 6:23 AM EST 7:05 PM EST
Astronomical Twilight 5:53 AM EST 7:35 PM EST
Moon 5:15 PM EST (2/13) 6:13 AM EST (2/13)
Length of Visible Light 11h 40m
Length of Day
10h 47m
Waxing Gibbous, 98% of the Moon is Illuminated
Feb 13
Waxing Gibbous
Feb 14
Full
Feb 22
Last Quarter
Mar 1
New
Mar 8
First Quarter

Hourly Weather History & Observations

Time (EST) Temp. Windchill Dew Point Humidity Pressure Visibility Wind Dir Wind Speed Gust Speed Precip Events Conditions
12:15 AM 28.4 °F 22.2 °F 28.4 °F 100% 29.80 in 1.2 mi NNE 5.8 mph - 0.01 in Snow Light Snow
12:35 AM 28.4 °F 22.2 °F 28.4 °F 100% 29.79 in 1.0 mi NNE 5.8 mph - 0.02 in Snow Light Snow
12:55 AM 28.4 °F 22.2 °F 28.4 °F 100% 29.77 in 1.2 mi North 5.8 mph - 0.04 in Snow Light Snow
1:15 AM 26.6 °F 17.5 °F 26.6 °F 100% 29.76 in 1.0 mi NNE 9.2 mph - 0.01 in Snow Light Snow
1:35 AM 26.6 °F 20.0 °F 26.6 °F 100% 29.75 in 2.0 mi NNE 5.8 mph - 0.02 in Snow Light Snow
1:55 AM 24.8 °F 17.9 °F 24.8 °F 100% 29.75 in 4.0 mi North 5.8 mph - N/A Snow Light Snow
2:15 AM 24.8 °F 19.1 °F 24.8 °F 100% 29.74 in 7.0 mi North 4.6 mph - 0.01 in Snow Light Snow
2:35 AM 24.8 °F 17.9 °F 24.8 °F 100% 29.73 in 7.0 mi North 5.8 mph - 0.01 in Snow Light Snow
2:55 AM 24.8 °F 17.9 °F 24.8 °F 100% 29.72 in 5.0 mi North 5.8 mph - 0.02 in Snow Light Snow
3:15 AM 23.0 °F 15.8 °F 23.0 °F 100% 29.71 in 5.0 mi North 5.8 mph - N/A Snow Light Snow
3:35 AM 23.0 °F 14.7 °F 23.0 °F 100% 29.70 in 5.0 mi North 6.9 mph - N/A Snow Light Snow
3:55 AM 23.0 °F 13.9 °F 23.0 °F 100% 29.70 in 4.0 mi North 8.1 mph - 0.01 in Snow Light Snow
4:15 AM 23.0 °F 15.8 °F 23.0 °F 100% 29.69 in 2.5 mi North 5.8 mph - N/A Snow Light Snow
4:35 AM 23.0 °F 13.9 °F 23.0 °F 100% 29.67 in 4.0 mi North 8.1 mph - N/A Snow Light Snow
4:55 AM 23.0 °F 11.1 °F 23.0 °F 100% 29.66 in 4.0 mi North 12.7 mph - N/A Snow Light Snow
5:15 AM 23.0 °F 13.9 °F 23.0 °F 100% 29.66 in 4.0 mi North 8.1 mph - N/A Snow Light Snow
5:35 AM 24.8 °F 15.3 °F 24.8 °F 100% 29.67 in 7.0 mi North 9.2 mph - N/A Snow Light Snow
5:55 AM 24.8 °F 17.9 °F 24.8 °F 100% 29.69 in 3.0 mi NNW 5.8 mph - N/A Snow Light Snow
6:15 AM 24.8 °F 19.1 °F 24.8 °F 100% 29.69 in 1.5 mi NNW 4.6 mph - N/A Snow Light Snow
6:35 AM 24.8 °F 19.1 °F 24.8 °F 100% 29.68 in 1.5 mi North 4.6 mph - N/A Snow Light Snow
6:55 AM 26.6 °F 20.0 °F 26.6 °F 100% 29.68 in 1.5 mi NNW 5.8 mph - N/A Snow Light Snow
7:15 AM 26.6 °F 21.2 °F 26.6 °F 100% 29.68 in 0.8 mi NW 4.6 mph - N/A Snow Light Snow
7:35 AM 26.6 °F 21.2 °F 26.6 °F 100% 29.68 in 0.8 mi NW 4.6 mph - N/A Snow Light Snow
7:55 AM 26.6 °F 21.2 °F 26.6 °F 100% 29.68 in 0.8 mi NNW 4.6 mph - N/A Snow Light Snow
8:15 AM 26.6 °F 20.0 °F 26.6 °F 100% 29.68 in 0.5 mi NNW 5.8 mph - N/A Snow Snow
8:35 AM 26.6 °F 20.0 °F 26.6 °F 100% 29.68 in 0.5 mi NNW 5.8 mph - N/A Snow Snow
8:50 AM 26.6 °F 17.5 °F 26.6 °F 100% 29.69 in 0.2 mi NNW 9.2 mph - N/A Snow Snow
9:15 AM 28.4 °F 19.7 °F 28.4 °F 100% 29.69 in 0.5 mi NW 9.2 mph - 0.01 in Snow Snow
9:35 AM 28.4 °F 18.5 °F 28.4 °F 100% 29.69 in 0.5 mi NNW 11.5 mph - 0.01 in Snow Light Snow
9:55 AM 28.4 °F 19.1 °F 28.4 °F 100% 29.69 in 0.5 mi NW 10.4 mph - 0.02 in Snow Light Snow
10:15 AM 28.4 °F 21.2 °F 28.4 °F 100% 29.69 in 0.2 mi NW 6.9 mph 10.4 mph N/A Snow Light Snow
10:35 AM 30.2 °F 21.9 °F 30.2 °F 100% 29.69 in 0.8 mi NNW 9.2 mph - 0.01 in Snow Light Snow
10:55 AM 30.2 °F 22.6 °F 30.2 °F 100% 29.69 in 1.0 mi NW 8.1 mph - 0.03 in Snow Light Snow
11:15 AM 30.2 °F 21.3 °F 30.2 °F 100% 29.68 in 0.8 mi NW 10.4 mph 16.1 mph N/A Snow Light Snow
11:35 AM 30.2 °F 22.6 °F 30.2 °F 100% 29.68 in 0.8 mi NW 8.1 mph - 0.02 in Snow Light Snow
11:55 AM 30.2 °F 21.9 °F 30.2 °F 100% 29.67 in 1.0 mi NNW 9.2 mph 17.3 mph 0.04 in Snow Light Snow
12:15 PM 32.0 °F 23.6 °F 32.0 °F 100% 29.66 in 1.8 mi NNW 10.4 mph 16.1 mph 0.05 in Snow Light Snow
12:35 PM 32.0 °F 26.4 °F 32.0 °F 100% 29.66 in 1.8 mi NW 5.8 mph - 0.07 in Snow Light Snow
12:55 PM 32.0 °F 24.2 °F 32.0 °F 100% 29.65 in 2.0 mi NNW 9.2 mph 16.1 mph 0.09 in Snow Light Snow
1:15 PM 32.0 °F 25.6 °F 32.0 °F 100% 29.65 in 2.5 mi NNW 6.9 mph - 0.02 in   Overcast
1:35 PM 32.0 °F 25.6 °F 32.0 °F 100% 29.64 in 2.0 mi NNW 6.9 mph 16.1 mph 0.02 in   Overcast
1:55 PM 32.0 °F 24.2 °F 32.0 °F 100% 29.64 in 1.2 mi NW 9.2 mph - 0.03 in   Overcast
2:35 PM 32.0 °F 24.8 °F 32.0 °F 100% 29.64 in 3.0 mi NW 8.1 mph - 0.01 in   Overcast
2:55 PM 32.0 °F 23.6 °F 32.0 °F 100% 29.65 in 1.0 mi WNW 10.4 mph - 0.01 in   Overcast
3:15 PM 32.0 °F 24.8 °F 32.0 °F 100% 29.65 in 0.8 mi WNW 8.1 mph - N/A   Overcast
3:35 PM 32.0 °F 24.2 °F 32.0 °F 100% 29.66 in 0.8 mi WNW 9.2 mph 17.3 mph 0.01 in   Overcast
3:55 PM 32.0 °F 24.2 °F 32.0 °F 100% 29.66 in 4.0 mi NW 9.2 mph - 0.01 in   Overcast
4:15 PM 32.0 °F 25.6 °F 32.0 °F 100% 29.66 in 10.0 mi WNW 6.9 mph - N/A   Overcast
4:35 PM 32.0 °F 23.0 °F 32.0 °F 100% 29.67 in 10.0 mi WNW 11.5 mph - N/A   Overcast
4:55 PM 32.0 °F 23.6 °F 32.0 °F 100% 29.67 in 10.0 mi WNW 10.4 mph - N/A   Overcast
5:15 PM 32.0 °F 24.8 °F 32.0 °F 100% 29.68 in 10.0 mi West 8.1 mph - N/A   Overcast
5:35 PM 32.0 °F 25.6 °F 32.0 °F 100% 29.68 in 10.0 mi WSW 6.9 mph - N/A   Overcast
5:55 PM 32.0 °F 26.4 °F 32.0 °F 100% 29.68 in 10.0 mi West 5.8 mph - N/A   Scattered Clouds
6:15 PM 32.0 °F 25.6 °F 30.2 °F 93% 29.69 in 10.0 mi WSW 6.9 mph - N/A   Clear
6:35 PM 32.0 °F 25.6 °F 28.4 °F 87% 29.69 in 10.0 mi West 6.9 mph - N/A   Clear
6:55 PM 32.0 °F 24.8 °F 24.8 °F 75% 29.69 in 10.0 mi West 8.1 mph - N/A   Clear
7:15 PM 32.0 °F 24.8 °F 23.0 °F 69% 29.70 in 10.0 mi West 8.1 mph - N/A   Clear
7:35 PM 26.6 °F 22.6 °F 26.6 °F 100% 29.70 in 10.0 mi SW 3.5 mph - N/A   Clear
7:55 PM 26.6 °F 21.2 °F 26.6 °F 100% 29.69 in 10.0 mi South 4.6 mph - N/A   Scattered Clouds
8:15 PM 23.0 °F 15.8 °F 23.0 °F 100% 29.70 in 10.0 mi SW 5.8 mph - N/A   Scattered Clouds
8:35 PM 26.6 °F 18.2 °F 23.0 °F 86% 29.70 in 10.0 mi SW 8.1 mph - N/A   Clear
8:55 PM 30.2 °F 22.6 °F 23.0 °F 75% 29.70 in 10.0 mi WSW 8.1 mph - N/A   Clear
9:15 PM 28.4 °F 20.4 °F 23.0 °F 80% 29.70 in 10.0 mi WSW 8.1 mph - N/A   Clear
9:35 PM 28.4 °F 19.7 °F 21.2 °F 74% 29.70 in 10.0 mi SW 9.2 mph - N/A   Clear
9:55 PM 30.2 °F 21.3 °F 21.2 °F 69% 29.70 in 10.0 mi SW 10.4 mph - N/A   Scattered Clouds
10:15 PM 30.2 °F 21.9 °F 23.0 °F 75% 29.70 in 10.0 mi SW 9.2 mph - N/A   Mostly Cloudy
10:35 PM 30.2 °F 23.4 °F 23.0 °F 75% 29.70 in 10.0 mi SW 6.9 mph - N/A   Mostly Cloudy
10:55 PM 30.2 °F 23.4 °F 23.0 °F 75% 29.70 in 10.0 mi SW 6.9 mph - N/A   Mostly Cloudy
11:15 PM 30.2 °F 24.3 °F 21.2 °F 69% 29.70 in 10.0 mi SW 5.8 mph - N/A   Overcast
11:35 PM 30.2 °F 23.4 °F 21.2 °F 69% 29.70 in 10.0 mi WSW 6.9 mph - N/A   Overcast
11:55 PM 30.2 °F 23.4 °F 21.2 °F 69% 29.70 in 10.0 mi SW 6.9 mph - N/A   Scattered Clouds